Regional Weather Roundup
Issued by NWS

Home | Current Version | Previous Version | Graphics & Text | Print | Product List | Glossary On
Versions: 1 2 3 4 5 6 7 8 9 10 11 12 13 14 15 16 17 18 19 20 21 22 23 24 25 26 27 28 29 30 31 32 33 34 35 36 37 38 39 40 41 42 43 44 45 46 47 48 49 50
000
ASUS45 KABQ 301310
RWRNM
NEW MEXICO REGIONAL WEATHER ROUNDUP
NATIONAL WEATHER SERVICE ALBUQUERQUE NM
700 AM MDT TUE JUN 30 2015

NOTE: "FAIR" MEANS FEW OR NO CLOUDS BELOW 12,000 FEET AGL WITH NO
       SIGNIFICANT WEATHER OR OBSTRUCTIONS TO VISION.

      THIS PRODUCT IS RELEASED AS TWO VERSIONS.  ONE VERSION NEAR
      THE TOP OF THE HOUR CONTAINING PRELIMINARY DATA FROM ALBUQUERQUE
      AND OTHER STATIONS.  A FINAL VERSION WITH ADDITIONAL DATA IS
      ISSUED ABOUT 10 MINUTES AFTER THE HOUR.

NMZ501-503-504-510>518-301400-
NORTHWEST PLATEAU/NORTHCENTRAL MOUNTAINS

CITY           SKY/WX    TMP DP  RH WIND       PRES   REMARKS
FARMINGTON     SUNNY     67  49  52 E6        30.21S
LOS ALAMOS     SUNNY     63  46  55 S3        30.40R
SANTA FE       MOSUNNY   60  49  66 NE3       30.34R
TAOS           SUNNY     57  39  51 CALM      30.40S
ANGEL FIRE     FOG       46  45  97 CALM      30.49R VSB<1/4

$$
NMZ402-403-502-505>509-301400-
WESTCENTRAL MOUNTAINS/SOUTHWEST MOUNTAINS

CITY           SKY/WX    TMP DP  RH WIND       PRES   REMARKS
GALLUP         CLEAR     59  47  64 CALM      30.29R
GRANTS         SUNNY     63  49  59 SE5       30.33R
SILVER CITY      N/A     66  57  72 N7        30.24S

$$
NMZ407-409-411-412-301400-
SOUTHERN DESERTS

CITY           SKY/WX    TMP DP  RH WIND       PRES   REMARKS
LORDSBURG      FAIR      68  63  83 W3        30.14R
DEMING         MOCLDY    70  60  70 CALM      30.15R
LAS CRUCES     MOSUNNY   73  54  50 NE8       30.17S
HOLLOMAN AFB   MOSUNNY   72  53  50 S8        30.14R
ALAMOGORDO     MOSUNNY   72  54  53 N5        30.16S
T OR C         CLOUDY    71  57  61 CALM      30.18S

$$
NMZ519>523-301400-
CENTRAL VALLEYS/CENTRAL HIGHLANDS

CITY           SKY/WX    TMP DP  RH WIND       PRES   REMARKS
ALBUQUERQUE    PTSUNNY   71  49  45 NW5       30.26R
DOUBLE EAGLE   SUNNY     64  50  59 SW5       30.30R
MORIARTY ARPT  PTSUNNY   55  50  81 CALM      30.35R
CLINES CORNERS SUNNY     61  49  64 N5        30.36S
BELEN          FAIR      68  48  49 CALM      30.25S
SOCORRO        FAIR      69  55  60 NW7       30.21S

$$
NMZ524>526-539-540-301400-
SOUTHCENTRAL MOUNTAINS

CITY           SKY/WX    TMP DP  RH WIND       PRES   REMARKS
RUIDOSO        MOSUNNY   63  54  72 CALM      30.38R

$$
NMZ527>531-301400-
NORTHEAST HIGHLANDS/NORTHEAST PLAINS

CITY           SKY/WX    TMP DP  RH WIND       PRES   REMARKS
LAS VEGAS      SUNNY     57  50  77 CALM      30.37R
RATON          SUNNY     56  52  86 CALM      30.33R
CLAYTON        SUNNY     66  52  60 W9        30.23R

$$
NMZ532>537-301400-
EASTCENTRAL PLAINS

CITY           SKY/WX    TMP DP  RH WIND       PRES   REMARKS
TUCUMCARI      SUNNY     65  54  67 SE5       30.20R
CANNON AFB     SUNNY     64  59  86 S5        30.22R
CLOVIS AIRPORT SUNNY     63  57  82 SW5       30.22S

$$
NMZ028-029-538-301400-
SOUTHEAST PLAINS

CITY           SKY/WX    TMP DP  RH WIND       PRES   REMARKS
ROSWELL        SUNNY     68  60  75 CALM      30.18R
ARTESIA        SUNNY     68  64  88 S7        30.19S
CARLSBAD       SUNNY     69  63  81 S5        30.16R
HOBBS          SUNNY     63  63 100 CALM      30.18S


$$


USA.gov is the U.S. government's official web portal to all federal, state and local government web resources and services.